Regional Weather Roundup
Issued by NWS

Home | Current Version | Previous Version | Graphics & Text | Print | Product List | Glossary On
Versions: 1 2 3 4 5 6 7 8 9 10 11 12 13 14 15 16 17 18 19 20 21 22 23 24 25 26 27 28
000
ASUS45 KTFX 272310
RWRMT
MONTANA REGIONAL WEATHER ROUNDUP
NATIONAL WEATHER SERVICE GREAT FALLS MT
500 PM MDT SAT MAY 27 2017

NOTE: "FAIR" INDICATES FEW OR NO CLOUDS BELOW 12000 FEET WITH NO
SIGNIFICANT WEATHER AND/OR OBSTRUCTIONS TO VISIBILITY.

MTZ001>007-043-280000-
WEST OF THE DIVIDE

CITY           SKY/WX    TMP DP  RH WIND       PRES   REMARKS
KALISPELL      SUNNY     75  46  35 S8        30.10F
MISSOULA       SUNNY     75  37  25 SW3       30.15S
BUTTE          CLOUDY    66  30  26 NW8       30.23S
MULLAN PASS    SUNNY     61  33  35 N5        30.28S
ANACONDA         N/A     66  30  26 CALM      30.20S
DEER LODGE       N/A     70  34  26 NW10G16   30.21S
EUREKA           N/A     81  39  22 S7        30.07S
HAMILTON         N/A     72  34  25 NW3       30.17S
PLAINS           N/A     78  43  28 SE1       30.11F
$$

MTZ008-052>055-280000-
SOUTHWEST MONTANA

CITY           SKY/WX    TMP DP  RH WIND       PRES   REMARKS
BOZEMAN        CLOUDY    71  37  28 VRB6      30.18S
DILLON         PTSUNNY   68  34  28 NW7       30.20F
ENNIS          MOSUNNY   66  34  30 NW8       30.26S
THREE FORKS      N/A     70  35  27 SW1       30.15S
TWIN BRIDGES     N/A     68  32  26 E3        30.17S
$$

MTZ009-010-012-014-046-048-049-054-280000-
EAST SLOPES AND CENTRAL MONTANA

CITY           SKY/WX    TMP DP  RH WIND       PRES   REMARKS
CUT BANK       PTSUNNY   75  36  24 W16       30.09S
GREAT FALLS    PTSUNNY   74  35  24 VRB6      30.09S
MALMSTROM AFB  PTSUNNY   75  34  22 NW16G22   30.09S
HELENA         MOSUNNY   75  34  22 NW10G17   30.14S
CHOTEAU          N/A     73  34  23 NW7       30.13S
CONRAD           N/A     76  42  29 W14       30.11S
$$

MTZ011-013-016-021-045-047-050-051-280000-
NORTH CENTRAL MONTANA

CITY           SKY/WX    TMP DP  RH WIND       PRES   REMARKS
HAVRE          PTSUNNY   80  32  17 NW17G29   30.00S
LEWISTOWN      CLOUDY    68  37  32 NW14G21   30.09F
N BAR RANCH      N/A     68  37  32 NW20G30   30.12S
CHINOOK          N/A     79  34  19 W14G25    29.98R
FORT BENTON      N/A     79  34  19 CALM      30.04R
$$

MTZ017>020-022>027-061-062-280000-
NORTHEAST MONTANA

CITY           SKY/WX    TMP DP  RH WIND       PRES   REMARKS
GLASGOW        MOSUNNY   78  33  19 NW24G33   29.92S
JORDAN           N/A     76  33  21 N15       29.96R
SIDNEY         MOSUNNY   73  41  31 NW21      29.87R
WOLF POINT     MOSUNNY   78  35  21 N18G36    29.89S
MALTA          MOSUNNY   79  34  19 NW16G26   29.94S
PLENTYWOOD       N/A     72  34  25 NW35G43   29.82S
POPLAR           N/A     73  36  25 NW18G29   29.88R
SCOBEY           N/A     73  37  26 NW24      29.90R
$$

MTZ028>42-056>058-280000-
SOUTHCENTRAL AND SOUTHEAST MONTANA

CITY           SKY/WX    TMP DP  RH WIND       PRES   REMARKS
BAKER          CLOUDY    70  38  31 N21       29.94R
BILLINGS       CLOUDY    71  33  24 NW13G25   30.08S
LIVINGSTON     CLOUDY    69  35  28 W16       30.16F
MILES CITY     CLOUDY    77  33  20 NW23G31   29.94S
BIG TIMBER     PTSUNNY   64  36  34 W10G22    30.17S
EKALAKA          N/A     57  44  62 W18       29.97R
FORSYTH          N/A     73  37  27 NW15      29.97S
LAUREL           N/A     72  37  27 W12       30.07F
ROUNDUP          N/A     71  35  26 W10       29.97S
$$

REGIONAL REPORTS...DAKOTAS

CITY           SKY/WX    TMP DP  RH WIND       PRES   REMARKS
WILLISTON      SUNNY     73  42  32 VRB7      29.83F
MINOT          CLOUDY    62  49  62 W13       29.80F
DICKINSON      CLOUDY    66  39  37 NW15G26   29.87R
BEACH            N/A     70  39  32 NW17G25   29.95S
CROSBY           N/A     68  45  42 NW7G15    29.81F
TIOGA            N/A     64  46  52 NW9       29.85S
BISMARCK       PTSUNNY   75  36  24 NW20G26   29.79S
GRAND FORKS    LGT RAIN  68  46  45 W8        29.72R
FARGO          MOSUNNY   77  40  26 W15       29.72F
BUFFALO SD       N/A     66  43  43 W23       29.90R
RAPID CITY     SUNNY     71  34  25 NW20      29.99S
$$

REGIONAL REPORTS...WYOMING/IDAHO/WASHINGTON

CITY           SKY/WX    TMP DP  RH WIND       PRES   REMARKS
GILLETTE       SUNNY     66  36  32 NW16G28   30.08F
SHERIDAN       CLOUDY    69  39  33 NW20G30   30.10S
BUFFALO WY     CLOUDY    66  34  30 N24G30    30.14R
CODY           SUNNY     65  28  24 NW5       30.19S
YELLOWSTONE LA   N/A     47  32  56 VRB3      30.33S
IDAHO FALLS    MOSUNNY   67  36  31 VRB5      30.24F
SALMON         MOSUNNY   72  36  26 W5        30.16S
BOISE          SUNNY     76  33  21 SW8       30.15F
SPOKANE        MOSUNNY   78  41  26 VRB5      30.13F
$$

REGIONAL REPORTS...ALBERTA

CITY           SKY/WX    TMP DP  RH WIND       PRES   REMARKS
EDMONTON       MOSUNNY   77  41  27 NW15G21   29.99R
CALGARY        PTSUNNY   73  37  27 VRB2      30.04S
LETHBRIDGE     MOSUNNY   79  39  24 W15       30.03S
MEDICINE HAT   PTSUNNY   79  37  22 NW17G26   29.94F
WATERTON GATE    N/A     73  37  27 SW15G23     N/A
CARDSTON         N/A     75  37  25 W8          N/A
MILK RIVER       N/A     73  41  31 NW10        N/A
$$

REGIONAL REPORTS...SASKATCHEWAN

CITY           SKY/WX    TMP DP  RH WIND       PRES   REMARKS
SWIFT CURRENT  MOSUNNY   75  36  23 NW28G33   29.89S
REGINA         MOSUNNY   70  37  30 NW20G32   29.82R
SASKATOON      MOSUNNY   72  32  23 N20G31    29.87R
CYPRESS HILLS    N/A     61  39  44 NE5         N/A
ROCKGLEN         N/A     70  36  28 NW21G29     N/A
$$




USA.gov is the U.S. government's official web portal to all federal, state and local government web resources and services.